sat.trackr.live / text

‹ back to catalog

ONEWEB-0611

NORAD 54674 · 2022-166AJ

PAYLOAD ACTIVE UNKNOWN

§ Identity

Operator
Country
UK
Launch date
2022-12-08
Launch site
AFETR
Launch vehicle
Mass (kg)
RCS (m²)

Purposes: comms

External: N2YO · Heavens-Above · Gunter

§ Orbital elements

Epoch: 2026-05-25T00:26:45.477888Z

Period
108.94 min
Inclination
87.9252°
Eccentricity
0.0001896
Mean motion
13.21825794 rev/d
Perigee alt
1,176.3 km
Apogee alt
1,179.2 km
Semi-major
7,555.9 km
B*
-1.9912e-5
RAAN
248.5872°
Arg perigee
102.6319°
Mean anomaly
257.5027°
Rev number
16,838

§ Raw data

ONEWEB-06111 54674U 22166AJ  26145.01858192  .00000005  00000+0 -19912-4 0  99962 54674  87.9252 248.5872 0001896 102.6319 257.5027 13.21825794168389

JSON: /api/v1/satellites/54674 · /tle

For live sub-satellite position, see the globe view (requires WebGL).

§ Visibility from observer

Set your observer location to see the next 7 days of passes ≥ 10°. The values pass through the URL so the page stays shareable.

No JS? Fill the form by hand. The geolocation button needs JavaScript.